Regional Weather Roundup
Issued by NWS Charleston, SC

Home | Current Version | Previous Version | Text Only | Print | Product List | Glossary On
Versions: 1 2 3 4 5 6 7 8 9 10 11 12 13 14 15 16 17 18 19 20 21 22 23 24 25 26 27 28 29 30 31 32 33 34 35 36 37 38 39 40 41 42 43 44 45 46 47 48 49 50
000
ASUS42 KCHS 260112
RWRCHS

REGIONAL WEATHER ROUNDUP
NATIONAL WEATHER SERVICE CHARLESTON SC
900 PM EDT SAT APR 25 2015

NOTE: "FAIR" INDICATES FEW OR NO CLOUDS BELOW 12,000 FEET WITH NO
SIGNIFICANT WEATHER AND/OR OBSTRUCTIONS TO VISIBILITY.

NOT ALL STATIONS ARE QUALITY CONTROLLED BY THE NATIONAL
WEATHER SERVICE. USE DATA WITH CAUTION...ESPECIALLY
DEWPOINT OBSERVATIONS.

SCZ027-030-031-034>040-042>050-260200-
...SOUTHEAST SOUTH CAROLINA...

CITY           SKY/WX    TMP DP  RH WIND       PRES   REMARKS
N CHARLESTON   CLOUDY    71  68  90 S10       29.66F
WATERFRONT PRK   N/A     70 N/A N/A SW8         N/A
MOUNT PLEASANT FAIR      72  70  94 MISG      29.64F
PINOPOLIS      NOT AVBL
MONCKS CORNER  FAIR      72  68  88 SW3       29.64S
SUMMERVILLE    FAIR      72  70  94 CALM      29.65F
BEAUFORT MCAS  TSTM      72  70  93 S5        29.64F
BEAUFORT ARPT  TSTM      72  70  94 CALM      29.65F
HILTON HEAD IS DRIZZLE   72  70  94 N3        29.68S
WALTERBORO     CLOUDY    72  68  88 S5        29.66R
ALLENDALE      MOCLDY    73  70  88 CALM      29.65R

...SOUTHERN MIDLANDS AND PEE DEE...

CITY           SKY/WX    TMP DP  RH WIND       PRES   REMARKS
GEORGETOWN     NOT AVBL
KINGSTREE      NOT AVBL
ORANGEBURG     CLOUDY    70  66  87 S5        29.64S
BARNWELL       FAIR      73  70  88 S5        29.65S
AIKEN          FAIR      70  64  83 S7        29.65F
MANNING        FAIR      70  55  60 CALM      29.63S
COLUMBIA       CLOUDY    70  64  81 CALM      29.61F
SUMTER         MOCLDY    69  65  86 W6        29.61F
FLORENCE       PTCLDY    67  64  90 CALM      29.63R
MYRTLE BEACH     N/A     70  64  83 SW7       29.65S
N MYRTLE BEACH PTCLDY    68  66  93 SW12      29.62F

$$

GAZ063-065-086>088-099>101-113>116-118-119-134>141-150-260200-
...SOUTHEAST GEORGIA...

CITY           SKY/WX    TMP DP  RH WIND       PRES   REMARKS
SAVANNAH ARPT  TSTM      64  63  94 NW48G81   29.72R SQUALL  VSB 1/4
HUNTER AAF     LGT RAIN  77  73  88 W18       29.70R
FORT STEWART   TSTM      77  72  83 VRB6      29.70R
STATESBORO     TSTM      67  67 100 SW9       29.71R
SYLVANIA       RAIN      73  71  94 W10G17    29.68R
CLAXTON        TSTM      66  64  94 W10G16    29.76R

...CSRA...CENTRAL AND FAR SOUTHEAST GEORGIA...

CITY           SKY/WX    TMP DP  RH WIND       PRES   REMARKS
THOMSON        CLOUDY    74  73  95 SW6       29.67S
AUGUSTA-BUSH   LGT RAIN  70  68  93 S10       29.61F
AUGUSTA-DANIEL LGT RAIN  74  68  81 S5        29.63F
SWAINSBORO     NOT AVBL
VIDALIA        TSTM      66  64  94 SW7       29.70F
EASTMAN        CLOUDY    68  68 100 W6        29.66S
HAZLEHURST     LGT RAIN  70  70  99 SW5       29.73R
ALMA           TSTM      68  67  96 W8        29.79R VSB 1
WAYCROSS       LGT RAIN  78  75  91 SW10      29.74R
JESUP          MOCLDY    81  73  78 W10G20    29.71R
BAXLEY         TSTM      70  68  94 W15G33    29.76R
BRUNSWICK      CLOUDY    77  68  73 SW16      29.70F
SAINT SIMONS   CLOUDY    75  69  81 SW14      29.71R

$$

SCZ027-028-034-036>038-045-046-048>050-GAZ119-141-260200-
...LAKE AND SUPPLEMENTAL COASTAL OBSERVATIONS...

STATION/POSITION TIME  TEMP    WIND        PRES    WAVE   SWELL
                       AIR SEA DIR/SP/G            HT/PER HT/PER/DIR
                 (UTC) (F)     (DEG/KT/KT) (MB)    (FT/S) (FT/S/D)
UPR LAKE MARION  NOT AVBL
WINYAH BAY       2345   71     210/  9     1003.0
LAKE MURRAY      0000   70     230/  5/  6 1003.0S
ACE BASIN NERRS  NOT AVBL
FORT PULASKI     0000   72 71  130/  4/  6 1004.8F
SAPELO ISLAND    NOT AVBL

$$

ANZ835-935-AMZ111-154-330-350-352-354-370-450-454-472-260200-
...C-MAN AND BUOY OBSERVATIONS...

STATION/POSITION TIME  TEMP    WIND        PRES    WAVE   SWELL
                       AIR SEA DIR/SP/G            HT/PER HT/PER/DIR
                 (UTC) (F)     (DEG/KT/KT) (MB)    (FT/S) (FT/S/D)
BUOY 41004       0050   72 71  210/ 16/ 17 1004.0F   5/ 5   2/ 8
BUOY 41008       0050   71 69  200/ 14/ 17 1005.5S   3/ 5   2/ 90/13
FOLLY BEACH CMAN 0000   70     220/ 11/ 12 1004.8F
CAPERS NEARSHORE 0008   70     230/ 16/ 19 1004.4F
FRIPP NEARSHORE  0000   70     190/  8/ 12 1004.5


STATION/POSITION TIME  TEMP    WIND        PRES    WAVE   SWELL
                       AIR SEA DIR/SP/G            HT/PER HT/PER/DIR
                 (UTC) (F)     (DEG/KT/KT) (MB)    (FT/S) (FT/S/D)
5E ST. MARYS GA  0021      70                N/A     2/13   2/ 90/13
FRYING PAN BUOY  0050   74 71  230/ 21/ 27 1003.7F   6/ 6   2/100/10
BUOY 41025       0050   61 70  350/  2/  4 1004.6F   3/ 6   2/180/ 6
CAPE LOOKOUT NC  0000   62     100/  7/  8 1003.7F
BUOY 41002       0050   71 71  210/ 19/ 23 1008.4F   5/ 5   2/ 80/12
BUOY 41010       0020   79 80  190/ 17/ 21 1009.7F
ST AUGUSTINE FL  0100   79 70  220/  9/ 13 1008.6R


$$


USA.gov is the U.S. government's official web portal to all federal, state and local government web resources and services.